Back to catalog

FENGYUN 1C DEB

AliveSSO
NORAD 31192·DEBRIS·🇨🇳 China

Launched May 10, 1999 from Taiyuan Satellite Launch Center

Loading…

Next Passes (next 24 hours)

TLE

FreshSource: Space-Track

Epoch: Sep 12, 2026, 05:18 UTC

1 31192U 99025BJW 26255.22145658  .00000969  00000-0  33109-3 0  9997
2 31192  98.5797 236.1755 0257507  30.0870 331.4821 14.21587957  5956

Track FENGYUN 1C DEB in real time with AllMySat

Download on the App Store